FENGYUN 1C DEB, 30753

Orbit data source: Space-Track

FENGYUN 1C DEB, 30753 is space debris in SSO originally from a launch on Mon, 10 May 1999 UTC launched from the Taiyaun Space Center, China (TSC). Fengyun 1C debris stems from the Chinese weather satellite Fengyun-1C, which was intentionally destroyed by a Chinese anti-satellite missile in 2007. This event dramatically increased the amount of space debris, with thousands of trackable fragments posing hazards to satellites and human spaceflight. The Fengyun 1C debris cloud has become a focal point in discussions about space sustainability and the need for international regulations to prevent the creation of new debris.

Loading next visibility...
Identifier
30753, 1999-025ATP
Orbit
SSO
Country
Flag of CNCN / PRC
Related business
Manufacturer
Unknown
Mission
Spacecraft
Bus & Motor
Unknown
Mass
Unknown
Launch date (UTC)
1999-05-10 (27 years ago)
Launch vehicle
Unknown
Launch site
Taiyaun Space Center, China (TSC)
Object type
Payload
Rocket body
Debris
Shape & HBR
Unknown shape, 0.1 m
Radar Cross Section
Medium (>0.1 m² and <1 m²)

Expand to show TLE details & history
Last TLE update: 16 hours ago

TLE from 16 hours ago
0 FENGYUN 1C DEB
1 30753U 99025ATP 26208.08248743  .00001155  00000-0  62805-3 0  9993
2 30753  98.7890 247.7706 0057101  73.0090 287.7330 14.13369912995481
Epoch: 2026-07-27T01:58Z
TLE epoch observation values (Epoch: 2026-07-27T01:58:46.913Z)
Latitude
-0.00002°
Longitude
-86.69604°
Altitude
838.41 km
Speed
7.44 km/s
True Right ascension
16h 31m 04s
True Declination
0° 00' 00"
Sunlit
Object was in full shadow at epoch
Visualization orbit readout
Latitude
Unknown
Longitude
Unknown
Altitude
Unknown
Speed
Unknown
Apparent Right ascension
Unknown
Apparent Declination
Unknown
Sunlit
N/A
Visualization observer readout
Local Sidereal Time
07:10:39
Azimuth
Unknown
Elevation
Unknown
Doppler factor
Unknown
Orbital elements
Apogee altitude
886.279 km
Perigee altitude
803.789 km
Semi-major axis
7,223.171 km
Eccentricity
0.00571
Inclination
98.789°
RAAN
247.7706°
Arg. of periapsis
73.009°
True anomaly
287.10842°
Mean anomaly
287.733°
Eccentric anomaly
287.42084°
Mean motion
3.5355 °/min
Orbital period
101.82 mins
BSTAR
0.00062805
Loading maneuver chart data...
Computing Atmospheric mass density...

Documentation

Showing up to 5 results
|